Showing default

METEOR 2-5, 11605

Orbit data source: Space-Track

METEOR 2-5, 11605 is a Commonwealth of Independent States-origin payload satellite in LEO that was launched on Wed, 31 Oct 1979 UTC via a VOSTOK 8A92M launch vehicle from the Plesetsk Missile And Space Complex (PKMTR). Payload-class satellites include a variety of spacecraft equipped with specific instruments for various scientific and technological missions. These include communications satellites like Starlink; space stations such as the ISS; scientific satellites like the Hubble; Earth observation satellites from companies like Planet Labs, Umbra, and HawkEye 360; GPS; miniature CubeSats for education and research; and military/defense satellites.

Loading next visibility...
Identifier
11605, 1979-095A
Orbit
LEO
Country
Flag of CISCIS
Related business
Manufacturer
VNIIEM
Mission
Spacecraft
Bus & Motor
METEOR-2, Unknown motor
Mass
~1,500 kg wet, ~1,500 kg dry
Launch date (UTC)
1979-10-31 (47 years ago)
Launch vehicle
VOSTOK 8A92M
Launch site
Plesetsk Missile And Space Complex (PKMTR)
Object type
Payload
Rocket body
Debris
Shape & HBR
Unknown
Radar Cross Section
Large (>1 m²)

Expand to show TLE details & history
Last TLE update: 2 days ago

TLE from 2 days ago
0 METEOR 2-5
1 11605U 79095A   26171.18194397  .00000106  00000-0  55770-4 0  9997
2 11605  81.2083 228.4551 0012727 263.0605  96.9117 14.07468041393727
Epoch: 2026-06-20T04:21Z
TLE epoch observation values (Epoch: 2026-06-20T04:21:59.959Z)
Latitude
-0.00002°
Longitude
-105.44497°
Altitude
872.065 km
Speed
7.416 km/s
True Right ascension
15h 13m 49s
True Declination
0° 00' 00"
Sunlit
Object was in full shadow at epoch
Visualization orbit readout
Latitude
Unknown
Longitude
Unknown
Altitude
Unknown
Speed
Unknown
Apparent Right ascension
Unknown
Apparent Declination
Unknown
Sunlit
N/A
Visualization observer readout
Local Sidereal Time
23:21:55
Azimuth
Unknown
Elevation
Unknown
Doppler factor
Unknown
Orbital elements
Apogee altitude
874.447 km
Perigee altitude
856.01 km
Semi-major axis
7,243.365 km
Eccentricity
0.00127
Inclination
81.2083°
RAAN
228.4551°
Arg. of periapsis
263.0605°
True anomaly
97.05645°
Mean anomaly
96.9117°
Eccentric anomaly
96.98408°
Mean motion
3.52073 °/min
Orbital period
102.25 mins
BSTAR
0.00005577
Loading maneuver chart data...
Computing Atmospheric mass density...

Documentation

Showing up to 5 results
|